Location: Unspecified
(0.0000°N, 0.0000°E)
Time: 16:54:07
(UTC+00:00)

Tiangong - Pass Details

Date: 27 June 2022
Orbit: 383 x 388 km, 41.5° (Epoch: 27 June)

Event Time Altitude Azimuth Distance (km) Brightness Sun altitude
Exits shadow 05:08:39 13° 201° (SSW) 1,222 3.2 -12.5°
Drops below altitude 10° 05:09:34 10° 185° (S) 1,407 3.6 -12.3°
Sets 05:12:16 0° 161° (SSE) 2,262 4.9 -11.6°
